Location: Antioch Baptist Church
(32.6696°N, 85.7327°W)
Time: 21:05:35
(UTC+00:00)

NOSS 3-4 (A) - Pass Details

Date: 14 July 2020
Orbit: 892 x 1320 km, 63.4° (Epoch: 12 July)

Event Time Altitude Azimuth Distance (km) Brightness Sun altitude
Rises 03:03:44 0° 332° (NNW) 3,905 8.0 -22.9°
Reaches altitude 10° 03:06:19 10° 336° (NNW) 3,005 7.1 -23.3°
Maximum altitude 03:13:33 68° 59° (ENE) 1,293 4.0 -24.3°
Enters shadow 03:16:05 45° 124° (SE) 1,634 4.2 -24.6°
